{"data":{"norad_id":68104,"epoch":"2026-09-19T21:49:01.704864Z","epoch_age_seconds":106808,"freshness":"FRESH","line1":"1 68104U 26044D   26262.90904751  .00018144  00000+0  56287-3 0  9996","line2":"2 68104  97.2836 221.8144 0001779 104.2128 255.9312 15.33451513 31349","mean_motion":15.33451513,"eccentricity":0.0001779,"inclination_deg":97.2836,"raan_deg":221.8144,"arg_perigee_deg":104.2128,"mean_anomaly_deg":255.9312,"bstar":0.00056287,"rev_number":3134,"period_min":93.905805810764,"perigee_km":464.30630918532,"apogee_km":466.74128369669,"semimajor_km":6843.660796441,"source":"CELESTRAK","updated_at":"2026-09-20T09:00:43.785514Z"}}